Location: Newark
(47.5833°N, 8.1500°E)
Time: 18:03:28
(UTC+00:00)

Transit 2A - Pass Details

Date: 29 October 2020
Orbit: 595 x 964 km, 66.7° (Epoch: 01 December)

Event Time Altitude Azimuth Distance (km) Brightness Sun altitude
Rises 08:01:20 0° 327° (NNW) 3,504 8.8 15.6°
Reaches altitude 10° 08:04:03 10° 333° (NNW) 2,508 8.2 16.0°
Maximum altitude 08:09:37 46° 46° (NE) 1,065 7.0 16.6°
Drops below altitude 10° 08:14:36 10° 120° (ESE) 2,253 10.3 17.2°
Sets 08:16:56 0° 127° (SE) 3,114 10.8 17.5°
